Location: Wallasey
(53.4265°N, 3.0662°W)
Time: 23:44:39
(UTC+01:00)

NOAA 18 - Pass Details

Date: 26 September 2019
Orbit: 840 x 861 km, 99.1° (Epoch: 21 October)

Event Time Altitude Azimuth Distance (km) Brightness Sun altitude
Exits shadow 20:26:18 15° 132° (SE) 2,146 6.8 -13.3°
Maximum altitude 20:30:37 47° 64° (ENE) 1,136 5.6 -13.9°
Drops below altitude 10° 20:35:56 10° 352° (N) 2,514 8.0 -14.6°
Sets 20:38:23 0° 347° (NNW) 3,454 8.8 -15.0°
